CREW DRAGON 8

Last updated on Fri Oct 25 2024 00:02:07 GMT+0000 (Coordinated Universal Time)

1 59097U 24042A 24297.52432310 .00023682 00000+0 41739-3 0 9993 2 59097 51.6392 39.7175 0009105 97.5589 262.6435 15.50253589 36200
UTC large
Height (km)
Speed (km/s)
/
Latitude / Longitude
Inclination (degrees)
Orbital Period (minutes)
Azimuth
Elevation
Range (km)
Doppler Factor

Next 0 passes for location: London (51.5072 / 0.1276)

Sorry there are no passes over London.